CW1735 Succasunna NJ US current weather conditions

sailwx.info

Wind from 304

Air temperature 1.7° C
Dewpoint -4.6° C

Last reported at 2020-Jan-28 21:00 UTC.
Time now 2020-Jan-28 22:04 UTC

Location: N 40°52' W 074°38'.
View on Google Maps.

See reports from other nearby stations

  
Tides and Currents Weather Stations Pressure Air Temp Water Temp Dewpoint Dewpoint Depression Visibility Wind Speed Wind Dir Waves Ship Positions
date/time (UTC)wind fromknots sea level pressurealtimeterstation pressurevisibilityair tempwater tempwave heightnotes
2020-Jan-28 21:00 304 1.7
2020-Jan-28 20:55 268 1.7
2020-Jan-28 20:50 312 0 gusting 4 2.2
2020-Jan-28 20:45 311 1 gusting 12 2.2
2020-Jan-28 20:40 258 6 gusting 12 2.2
2020-Jan-28 20:35 2.2
2020-Jan-28 20:30 309 2.2
2020-Jan-28 20:25 313 1 gusting 8 2.2
2020-Jan-28 20:20 253 2.2
2020-Jan-28 20:15 2.2
2020-Jan-28 20:10 2.2
2020-Jan-28 20:05 284 9 gusting 13 2.2
2020-Jan-28 20:00 305 1 gusting 6 2.2
2020-Jan-28 19:55 281 3 gusting 10 2.2
2020-Jan-28 19:50 318 6 gusting 10 2.2
2020-Jan-28 19:45 241 6 gusting 9 2.2
2020-Jan-28 19:40 260 6 gusting 9 2.2
2020-Jan-28 19:35 299 6 gusting 8 2.2
2020-Jan-28 19:30 295 1 gusting 6 2.2
2020-Jan-28 19:25 306 2 gusting 6 2.2
2020-Jan-28 19:20 298 2.2
2020-Jan-28 19:15 2.2
2020-Jan-28 19:10 359 2 gusting 6 2.2
2020-Jan-28 19:05 305 5 gusting 8 2.2
2020-Jan-28 19:00 306 2 gusting 11 1.7
2020-Jan-28 18:55 256 6 gusting 11 2.2
2020-Jan-28 18:50 298 8 gusting 8 2.2
2020-Jan-28 18:45 359 1.7
2020-Jan-28 18:40 335 3 gusting 10 1.7
2020-Jan-28 18:35 342 3 gusting 10 1.7
2020-Jan-28 18:30 356 7 gusting 9 1.7
2020-Jan-28 18:25 007 6 gusting 8 1.7
2020-Jan-28 18:20 277 4 gusting 6 1.7
2020-Jan-28 18:15 329 2 gusting 10 1.7
2020-Jan-28 18:10 325 6 gusting 10 2.2
2020-Jan-28 18:05 320 4 gusting 11 2.2
2020-Jan-28 18:00 2.2
2020-Jan-28 17:55 291 5 gusting 9 2.2
2020-Jan-28 17:50 343 8 gusting 9 2.2
2020-Jan-28 17:45 272 6 gusting 13 2.2
2020-Jan-28 17:40 337 1 gusting 13 2.2
2020-Jan-28 17:35 295 8 gusting 13 2.2
2020-Jan-28 17:30 291 5 gusting 13 2.2
2020-Jan-28 17:25 268 6 gusting 12 2.8
2020-Jan-28 17:20 260 4 gusting 14 2.8
2020-Jan-28 17:15 330 2.8
2020-Jan-28 17:10 357 2.8
2020-Jan-28 17:05 352 6 gusting 14 2.8
2020-Jan-28 17:00 319 10 gusting 14 2.8
2020-Jan-28 16:55 302 2.8
2020-Jan-28 16:50 302 8 gusting 17 2.8
2020-Jan-28 16:45 280 12 gusting 17 2.2
2020-Jan-28 16:40 268 6 gusting 12 2.2
2020-Jan-28 16:35 044 10 gusting 13 2.2
2020-Jan-28 16:30 320 6 gusting 13 2.8
2020-Jan-28 16:25 346 1 gusting 10 2.8
2020-Jan-28 16:20 288 9 gusting 10 2.8
2020-Jan-28 16:15 323 1 gusting 14 2.8
2020-Jan-28 16:10 292 6 gusting 14 2.8
2020-Jan-28 16:05 285 2 gusting 15 2.8
2020-Jan-28 16:00 271 10 gusting 15 2.8
2020-Jan-28 15:55 325 7 gusting 14 2.8
2020-Jan-28 15:50 352 8 gusting 14 2.8
2020-Jan-28 15:45 008 8 gusting 11 2.8
2020-Jan-28 15:40 263 2.8
2020-Jan-28 15:35 349 5 gusting 11 2.2
2020-Jan-28 15:30 304 10 gusting 15 2.2
2020-Jan-28 15:25 356 15 gusting 15 2.8
2020-Jan-28 15:20 357 8 gusting 11 2.8
2020-Jan-28 15:15 356 9 gusting 12 2.8
2020-Jan-28 15:10 347 10 gusting 12 3.3
2020-Jan-28 15:05 296 4 gusting 11 2.8
2020-Jan-28 15:00 343 2 gusting 11 2.8
2020-Jan-28 14:55 006 10 gusting 11 2.8
2020-Jan-28 14:50 264 6 gusting 10 2.2
2020-Jan-28 14:45 356 8 gusting 14 2.2
2020-Jan-28 14:40 2.2
2020-Jan-28 14:35 343 2 gusting 11 2.2
2020-Jan-28 14:30 301 1 gusting 9 2.2
2020-Jan-28 14:25 350 5 gusting 9 2.2
2020-Jan-28 14:20 253 6 gusting 9 1.7
2020-Jan-28 14:15 332 0 gusting 6 2.2
2020-Jan-28 14:10 287 2 gusting 8 1.7
2020-Jan-28 14:05 294 1 gusting 8 1.1
2020-Jan-28 14:00 347 0 gusting 5 1.1
2020-Jan-28 13:55 342 1.1
2020-Jan-28 13:50 356 6 gusting 8 0.6
2020-Jan-28 13:45 333 3 gusting 6 0.6
2020-Jan-28 13:40 274 4 gusting 9 0.6
2020-Jan-28 13:35 308 2 gusting 10 0.6
2020-Jan-28 13:30 288 6 gusting 10 -0.0
2020-Jan-28 13:25 305 2 gusting 9 -0.0
2020-Jan-28 13:20 299 -0.0
2020-Jan-28 13:15 278 -0.0
2020-Jan-28 13:10 282 1 gusting 4 -0.0
2020-Jan-28 13:05 288 -0.0
2020-Jan-28 13:00 243 -0.0
2020-Jan-28 12:55 295 6 gusting 11 -0.6
2020-Jan-28 12:50 280 -0.6
2020-Jan-28 12:45 296 -0.6
2020-Jan-28 12:40 352 1 gusting 5 -0.6
2020-Jan-28 12:36 270 -0.6
2020-Jan-28 12:31 270 -0.6
2020-Jan-28 12:26 270 -0.6
2020-Jan-28 12:21 275 -0.0
2020-Jan-28 12:16 274 -0.0
2020-Jan-28 12:11 287 -0.0
2020-Jan-28 12:06 265 2 gusting 6 -0.0
2020-Jan-28 12:01 352 5 gusting 5 -0.0
2020-Jan-28 11:56 248 5 gusting 6 -0.0
2020-Jan-28 11:51 258 -0.0
2020-Jan-28 11:46 291 -0.0
2020-Jan-28 11:41 285 1 gusting 6 -0.0
2020-Jan-28 11:36 313 -0.0
2020-Jan-28 11:31 304 -0.0
2020-Jan-28 11:26 292 -0.0
2020-Jan-28 11:21 280 0.6
2020-Jan-28 11:16 257 3 gusting 6 0.6
2020-Jan-28 11:11 301 2 gusting 6 0.6
2020-Jan-28 11:06 275 4 gusting 5 0.6
2020-Jan-28 11:01 298 3 gusting 5 0.6
2020-Jan-28 10:56 248 0.6
2020-Jan-28 10:51 289 0 gusting 10 0.6
2020-Jan-28 10:46 292 5 gusting 10 0.6
2020-Jan-28 10:41 296 3 gusting 8 0.6
2020-Jan-28 10:36 333 1 gusting 6 0.6
2020-Jan-28 10:31 301 3 gusting 5 0.6
2020-Jan-28 10:26 333 0.6
2020-Jan-28 10:21 319 0.6
2020-Jan-28 10:16 336 2 gusting 9 0.6
2020-Jan-28 10:11 344 4 gusting 6 0.6
2020-Jan-28 10:06 343 2 gusting 9 0.6
2020-Jan-28 10:01 291 0.6
2020-Jan-28 09:56 0.6
2020-Jan-28 09:51 0.6
2020-Jan-28 09:46 349 0.6
2020-Jan-28 09:41 326 4 gusting 11 0.6
2020-Jan-28 09:36 0.6
2020-Jan-28 09:31 263 0.6
2020-Jan-28 09:26 318 6 gusting 8 0.6
2020-Jan-28 09:21 267 6 gusting 9 0.6
2020-Jan-28 09:16 253 6 gusting 9 0.6
2020-Jan-28 09:11 292 1 gusting 8 0.6
2020-Jan-28 09:06 354 4 gusting 8 0.6
2020-Jan-28 09:01 292 0.6
2020-Jan-28 08:56 326 0.6
2020-Jan-28 08:51 289 1 gusting 8 0.6
2020-Jan-28 08:46 305 6 gusting 8 0.6
2020-Jan-28 08:41 284 4 gusting 8 0.6
2020-Jan-28 08:36 296 0.6
2020-Jan-28 08:31 289 0.6
2020-Jan-28 08:26 278 1 gusting 10 0.6
2020-Jan-28 08:21 343 6 gusting 10 0.6
2020-Jan-28 08:16 339 5 gusting 6 0.6
2020-Jan-28 08:11 316 2 gusting 6 0.6
2020-Jan-28 07:56 312 2 gusting 9 0.6
2020-Jan-28 07:51 258 1 gusting 7 0.6
2020-Jan-28 07:46 287 0 gusting 4 0.6
2020-Jan-28 07:41 277 0 gusting 4 0.6
2020-Jan-28 07:36 291 0.6
2020-Jan-28 07:31 288 1 gusting 9 1.1
2020-Jan-28 07:26 282 6 gusting 9 1.1
2020-Jan-28 07:21 247 5 gusting 6 1.1
2020-Jan-28 07:16 281 4 gusting 6 1.1
2020-Jan-28 07:06 309 4 gusting 6 1.1
2020-Jan-28 07:01 277 1.1
2020-Jan-28 06:56 292 0 gusting 6 1.1
2020-Jan-28 06:51 278 1 gusting 5 1.1
2020-Jan-28 06:46 288 4 gusting 5 1.1
2020-Jan-28 06:41 268 4 gusting 6 1.1
2020-Jan-28 06:36 292 1.1
2020-Jan-28 06:31 280 1 gusting 6 1.1
2020-Jan-28 06:26 280 6 gusting 6 1.1
2020-Jan-28 06:21 287 6 gusting 6 1.1
2020-Jan-28 06:16 280 5 gusting 5 1.1
2020-Jan-28 06:11 240 1.1
2020-Jan-28 06:05 281 4 gusting 5 1.1
2020-Jan-28 06:01 284 1 gusting 5 1.1
2020-Jan-28 05:55 288 3 gusting 6 1.1
2020-Jan-28 05:51 298 1 gusting 6 1.1
2020-Jan-28 05:46 294 1.1
2020-Jan-28 05:41 287 6 gusting 8 1.1
2020-Jan-28 05:36 312 1.1
2020-Jan-28 05:31 003 6 gusting 9 1.1
2020-Jan-28 05:25 332 2 gusting 9 1.7
2020-Jan-28 05:21 342 1.7
2020-Jan-28 05:16 353 1.7
2020-Jan-28 05:11 287 1.7
2020-Jan-28 05:06 316 6 gusting 6 1.7
2020-Jan-28 05:01 285 1.7
2020-Jan-28 04:56 352 0 gusting 8 1.7
2020-Jan-28 04:51 353 0 gusting 8 1.7
2020-Jan-28 04:46 353 3 gusting 6 1.7
2020-Jan-28 04:41 326 0 gusting 6 1.7
2020-Jan-28 04:36 346 6 gusting 11 1.7
2020-Jan-28 04:31 1.7
2020-Jan-28 04:26 1.7
2020-Jan-28 04:21 011 9 gusting 10 1.7
2020-Jan-28 04:16 352 1.7
2020-Jan-28 04:11 1.7
2020-Jan-28 04:06 336 1 gusting 6 2.2
2020-Jan-28 04:01 346 0 gusting 4 2.2
2020-Jan-28 03:56 333 2.2
2020-Jan-28 03:51 313 2 gusting 6 2.2
2020-Jan-28 03:46 352 2 gusting 6 2.2
2020-Jan-28 03:41 335 2 gusting 5 2.2
2020-Jan-28 03:36 302 2.2
2020-Jan-28 03:31 329 2.2
2020-Jan-28 03:26 343 0 gusting 6 2.2
2020-Jan-28 03:21 296 0 gusting 4 2.2
2020-Jan-28 03:16 320 2.2
2020-Jan-28 03:10 295 2.2
2020-Jan-28 03:05 316 2.2
2020-Jan-28 03:01 277 2.2
2020-Jan-28 02:56 285 2 gusting 6 2.2
2020-Jan-28 02:50 277 0 gusting 6 2.2
2020-Jan-28 02:45 282 2 gusting 6 2.2
2020-Jan-28 02:40 274 0 gusting 5 2.8
2020-Jan-28 02:36 298 2.8
2020-Jan-28 02:30 277 6 gusting 11 2.8
2020-Jan-28 02:26 359 4 gusting 11 2.8
2020-Jan-28 02:20 323 6 gusting 7 2.8
2020-Jan-28 02:15 272 1 gusting 6 2.8
2020-Jan-28 02:11 281 3 gusting 6 2.8
2020-Jan-28 02:06 288 2.8
2020-Jan-28 02:01 294 2.8
2020-Jan-28 01:55 267 4 gusting 8 2.8
2020-Jan-28 01:51 2.8
2020-Jan-28 01:46 275 2.8
2020-Jan-28 01:40 274 2.8
2020-Jan-28 01:35 275 2.8
2020-Jan-28 01:30 275 3.3
2020-Jan-28 01:26 275 3.3
2020-Jan-28 01:21 270 3.3
2020-Jan-28 01:15 318 0 gusting 6 3.3
2020-Jan-28 01:11 275 3.3
2020-Jan-28 01:06 288 3.3
2020-Jan-28 01:01 301 3.3
2020-Jan-28 00:56 260 3.3
2020-Jan-28 00:50 282 3.3
2020-Jan-28 00:46 295 0 gusting 5 3.3
2020-Jan-28 00:40 295 3.3
2020-Jan-28 00:35 264 3.3
2020-Jan-28 00:31 271 3.3
2020-Jan-28 00:26 289 3 gusting 5 3.3
2020-Jan-28 00:20 291 3.3
2020-Jan-28 00:15 284 3.3
2020-Jan-28 00:10 288 3.3
2020-Jan-28 00:06 284 3.3
2020-Jan-28 00:01 284 1 gusting 5 3.3
2020-Jan-27 23:56 285 3.3
2020-Jan-27 23:50 278 3.3
2020-Jan-27 23:46 278 3.3
2020-Jan-27 23:40 285 3.3
2020-Jan-27 23:35 285 3.3
2020-Jan-27 23:30 281 3.3
2020-Jan-27 23:25 281 3.3
2020-Jan-27 23:20 287 3.3
2020-Jan-27 23:15 287 3.3
2020-Jan-27 23:10 285 3.3
2020-Jan-27 23:05 287 3.3
2020-Jan-27 23:01 287 3.3
2020-Jan-27 22:55 287 3.3
2020-Jan-27 22:50 287 3.3
2020-Jan-27 22:45 287 3.9
2020-Jan-27 22:40 280 3.9
2020-Jan-27 22:35 287 3.9
2020-Jan-27 22:30 288 3.9
2020-Jan-27 22:25 287 3.9
2020-Jan-27 22:20 280 5 gusting 6 3.9
2020-Jan-27 22:15 336 3.9
2020-Jan-27 22:10 274 4 gusting 4 3.9
2020-Jan-27 22:05 291 3.9
2020-Jan-27 22:00 291 3.9
2020-Jan-27 21:55 291 0 gusting 4 3.9
2020-Jan-27 21:50 301 3.9
2020-Jan-27 21:45 272 2 gusting 8 3.9
2020-Jan-27 21:40 280 4 gusting 6 3.9
2020-Jan-27 21:35 302 0 gusting 6 3.9
2020-Jan-27 21:30 275 6 gusting 6 3.9
2020-Jan-27 21:25 277 3.9
2020-Jan-27 21:20 296 3.9
2020-Jan-27 21:15 275 3.9
2020-Jan-27 21:10 287 1 gusting 4 3.9
2020-Jan-27 21:05 274 2 gusting 2 3.9
2020-Jan-27 21:01 281 3.9
2020-Jan-27 20:55 305 1 gusting 7 3.9
2020-Jan-27 20:50 325 4 gusting 9 3.9
2020-Jan-27 20:45 344 0 gusting 10 4.4
2020-Jan-27 20:40 271 2 gusting 10 4.4
2020-Jan-27 20:35 320 5 gusting 10 4.4
2020-Jan-27 20:30 292 4 gusting 10 4.4
2020-Jan-27 20:25 353 4.4
2020-Jan-27 20:20 294 6 gusting 11 4.4
2020-Jan-27 20:15 295 0 gusting 12 5.0
2020-Jan-27 20:10 295 7 gusting 13 5.0
2020-Jan-27 20:05 336 0 gusting 13 5.0
2020-Jan-27 20:00 289 6 gusting 14 4.4
2020-Jan-27 19:55 284 9 gusting 14 4.4
2020-Jan-27 19:50 278 5 gusting 9 4.4
2020-Jan-27 19:45 253 6 gusting 6 5.0
2020-Jan-27 19:40 291 2 gusting 6 4.4
2020-Jan-27 19:35 344 1 gusting 6 4.4
2020-Jan-27 19:30 295 1 gusting 11 4.4
2020-Jan-27 19:25 347 1 gusting 11 4.4
2020-Jan-27 19:20 268 8 gusting 8 4.4
2020-Jan-27 19:15 281 4.4
2020-Jan-27 19:10 271 5 gusting 11 4.4
2020-Jan-27 19:05 270 5 gusting 9 4.4
2020-Jan-27 19:00 298 6 gusting 13 3.9
2020-Jan-27 18:55 289 6 gusting 13 3.9
2020-Jan-27 18:50 298 10 gusting 10 3.9
2020-Jan-27 18:45 298 6 gusting 11 3.9
2020-Jan-27 18:40 251 11 gusting 11 3.9
2020-Jan-27 18:35 278 4 gusting 5 4.4
2020-Jan-27 18:30 284 4.4
2020-Jan-27 18:25 222 4.4
2020-Jan-27 18:20 280 6 gusting 9 4.4
2020-Jan-27 18:15 272 6 gusting 6 4.4
2020-Jan-27 18:10 288 3 gusting 9 3.9
2020-Jan-27 18:05 278 6 gusting 9 3.9
2020-Jan-27 18:00 284 9 gusting 13 3.9
2020-Jan-27 17:55 288 6 gusting 13 4.4
2020-Jan-27 17:50 278 5 gusting 10 4.4
2020-Jan-27 17:45 323 4.4
2020-Jan-27 17:40 251 4 gusting 10 4.4
2020-Jan-27 17:35 272 6 gusting 10 4.4
2020-Jan-27 17:30 287 4 gusting 11 4.4
2020-Jan-27 17:25 263 11 gusting 11 4.4
2020-Jan-27 17:20 285 4 gusting 11 4.4
2020-Jan-27 17:15 236 2 gusting 6 4.4
2020-Jan-27 17:10 285 4.4
2020-Jan-27 17:05 292 4.4
2020-Jan-27 17:00 250 2 gusting 7 4.4
2020-Jan-27 16:55 288 6 gusting 10 4.4
2020-Jan-27 16:50 322 9 gusting 10 4.4
2020-Jan-27 16:45 271 4.4
2020-Jan-27 16:40 301 4.4
2020-Jan-27 16:35 304 4.4
2020-Jan-27 16:30 248 5 gusting 12 4.4
2020-Jan-27 16:25 4.4
2020-Jan-27 16:20 4.4
2020-Jan-27 16:15 322 4 gusting 12 3.9
2020-Jan-27 16:11 239 8 gusting 11 3.9
2020-Jan-27 16:05 322 8 gusting 11 3.9
2020-Jan-27 16:00 261 2 gusting 10 3.9
2020-Jan-27 15:55 280 6 gusting 10 3.9
2020-Jan-27 15:50 248 8 gusting 8 3.9
2020-Jan-27 15:45 264 5 gusting 12 3.3
2020-Jan-27 15:40 312 7 gusting 12 3.3
2020-Jan-27 15:35 280 11 gusting 11 3.3
2020-Jan-27 15:30 233 5 gusting 10 3.3
2020-Jan-27 15:25 267 6 gusting 11 2.8
2020-Jan-27 15:20 258 6 gusting 11 2.8
2020-Jan-27 15:15 253 5 gusting 5 2.8
2020-Jan-27 15:10 226 2 gusting 5 2.8
2020-Jan-27 15:05 209 0 gusting 9 3.3
2020-Jan-27 15:00 223 6 gusting 9 3.3
2020-Jan-27 14:55 189 1 gusting 11 2.8
2020-Jan-27 14:50 236 6 gusting 11 2.8
2020-Jan-27 14:45 224 7 gusting 7 2.8
2020-Jan-27 14:40 243 2 gusting 6 2.2
2020-Jan-27 14:35 256 2.2
2020-Jan-27 14:30 243 2 gusting 6 2.2
2020-Jan-27 14:25 234 1 gusting 6 2.2
2020-Jan-27 14:20 277 2.2
2020-Jan-27 14:15 232 1 gusting 6 1.7
2020-Jan-27 14:10 220 1.7
2020-Jan-27 14:05 233 1.7
2020-Jan-27 14:00 253 4 gusting 6 1.7
2020-Jan-27 13:55 240 6 gusting 6 1.7
2020-Jan-27 13:50 264 1 gusting 6 1.7
2020-Jan-27 13:45 210 1.1
2020-Jan-27 13:40 215 2 gusting 9 1.1
2020-Jan-27 13:35 256 5 gusting 9 1.1
2020-Jan-27 13:30 229 1.1
2020-Jan-27 13:25 226 1.1
2020-Jan-27 13:20 237 0 gusting 5 1.1
2020-Jan-27 13:15 226 1.1
2020-Jan-27 13:10 193 1 gusting 6 1.1
2020-Jan-27 13:05 196 1.1
2020-Jan-27 13:00 230 4 gusting 6 1.1
2020-Jan-27 12:55 234 1.1
2020-Jan-27 12:50 193 7 gusting 7 1.1
2020-Jan-27 12:45 205 7 gusting 7 1.1
2020-Jan-27 12:40 208 6 gusting 8 1.1
2020-Jan-27 12:35 202 8 gusting 8 0.6
2020-Jan-27 12:30 198 4 gusting 6 0.6
2020-Jan-27 12:25 209 4 gusting 6 0.6
2020-Jan-27 12:20 217 0.6
2020-Jan-27 12:15 205 1 gusting 6 0.6
2020-Jan-27 12:10 209 0 gusting 6 1.1
2020-Jan-27 12:05 219 4 gusting 6 1.1
2020-Jan-27 12:00 216 2 gusting 6 1.1
2020-Jan-27 11:55 212 5 gusting 6 1.1
2020-Jan-27 11:50 195 1.1
2020-Jan-27 11:45 222 0 gusting 5 1.1
2020-Jan-27 11:40 210 2 gusting 5 1.1
2020-Jan-27 11:35 223 1 gusting 6 1.1
2020-Jan-27 11:30 217 0 gusting 8 1.1
2020-Jan-27 11:25 280 6 gusting 8 1.1
2020-Jan-27 11:20 209 1 gusting 6 1.1
2020-Jan-27 11:15 223 6 gusting 8 1.1
2020-Jan-27 11:10 223 0 gusting 8 1.1
2020-Jan-27 11:06 226 1 gusting 8 1.1
2020-Jan-27 11:00 217 1 gusting 8 1.1
2020-Jan-27 10:55 165 4 gusting 6 1.1
2020-Jan-27 10:50 202 1 gusting 6 1.1
2020-Jan-27 10:45 210 1 gusting 6 1.1
2020-Jan-27 10:40 219 2 gusting 6 1.1
2020-Jan-27 10:35 165 2 gusting 6 1.1
2020-Jan-27 10:30 209 4 gusting 6 1.1
2020-Jan-27 10:25 192 3 gusting 6 1.1
2020-Jan-27 10:20 224 1.1
2020-Jan-27 10:16 205 4 gusting 9 1.1
2020-Jan-27 10:10 237 4 gusting 8 1.1
2020-Jan-27 10:05 222 1.1
2020-Jan-27 10:00 210 0 gusting 6 1.1
2020-Jan-27 09:56 208 2 gusting 6 1.1
2020-Jan-27 09:51 217 0 gusting 6 1.1
2020-Jan-27 09:46 202 4 gusting 6 1.1
2020-Jan-27 09:41 192 5 gusting 7 1.1
2020-Jan-27 09:36 206 1 gusting 8 1.1
2020-Jan-27 09:31 198 4 gusting 9 1.1
2020-Jan-27 09:26 202 3 gusting 9 1.1
2020-Jan-27 09:21 229 2 gusting 9 1.1
2020-Jan-27 09:16 222 5 gusting 9 1.1
2020-Jan-27 09:11 205 5 gusting 7 1.1
2020-Jan-27 09:06 232 4 gusting 6 1.1
2020-Jan-27 09:01 186 6 gusting 8 1.1
2020-Jan-27 08:56 233 5 gusting 8 1.1
2020-Jan-27 08:51 227 3 gusting 6 1.1
2020-Jan-27 08:46 202 1.1
2020-Jan-27 08:41 202 1.1
2020-Jan-27 08:36 206 1 gusting 5 1.1
2020-Jan-27 08:31 220 2 gusting 7 1.1
2020-Jan-27 08:26 210 6 gusting 10 1.1
2020-Jan-27 08:21 196 4 gusting 10 1.1
2020-Jan-27 08:16 208 1 gusting 6 1.1
2020-Jan-27 08:11 181 1.1
2020-Jan-27 07:56 217 6 gusting 8 1.1
2020-Jan-27 07:51 213 6 gusting 8 1.1
2020-Jan-27 07:46 254 2 gusting 10 1.1
2020-Jan-27 07:41 181 1 gusting 10 1.1
2020-Jan-27 07:36 208 2 gusting 8 1.1
2020-Jan-27 07:31 226 2 gusting 10 1.1
2020-Jan-27 07:26 268 1 gusting 10 1.1
2020-Jan-27 07:21 181 0.6
2020-Jan-27 07:16 210 2 gusting 6 0.6
2020-Jan-27 07:11 213 2 gusting 6 0.6
2020-Jan-27 07:06 233 0.6
2020-Jan-27 07:01 234 1 gusting 6 0.6
2020-Jan-27 06:56 240 1 gusting 5 0.6
2020-Jan-27 06:51 222 0.6
2020-Jan-27 06:46 184 -0.0
2020-Jan-27 06:41 184 -0.0
2020-Jan-27 06:36 184 -0.0
2020-Jan-27 06:31 184 0 gusting 0 -0.0
2020-Jan-27 06:26 184 -0.0
2020-Jan-27 06:21 184 -0.0
2020-Jan-27 06:16 184 -0.0
2020-Jan-27 06:11 184 0.6
2020-Jan-27 06:06 184 0.6
2020-Jan-27 06:01 205 0.6
2020-Jan-27 05:56 206 -0.0
2020-Jan-27 05:51 206 0.6
2020-Jan-27 05:46 206 0.6
2020-Jan-27 05:41 205 0.6
2020-Jan-27 05:36 206 0.6
2020-Jan-27 05:31 206 0.6
2020-Jan-27 05:26 196 0.6
2020-Jan-27 05:21 206 0.6
2020-Jan-27 05:16 206 0.6
2020-Jan-27 05:11 206 0.6
2020-Jan-27 05:06 202 0.6
2020-Jan-27 05:01 202 0.6
2020-Jan-27 04:56 202 0.6
2020-Jan-27 04:51 202 0.6
2020-Jan-27 04:46 202 1.1
2020-Jan-27 04:41 202 2 gusting 2 1.1
2020-Jan-27 04:36 213 1.1
2020-Jan-27 04:31 212 0 gusting 1 1.1
2020-Jan-27 04:26 213 1.1
2020-Jan-27 04:21 205 1.1
2020-Jan-27 04:16 250 1.7
2020-Jan-27 04:11 224 2 gusting 9 1.7
2020-Jan-27 04:06 246 0 gusting 9 1.7
2020-Jan-27 04:01 220 0 gusting 7 1.7
2020-Jan-27 03:56 212 4 gusting 7 1.7
2020-Jan-27 03:51 206 1.7
2020-Jan-27 03:46 248 4 gusting 4 1.7
2020-Jan-27 03:41 193 0 gusting 4 1.7
2020-Jan-27 03:36 160 1.7
2020-Jan-27 03:31 205 2 gusting 5 1.7
2020-Jan-27 03:26 254 1.7
2020-Jan-27 03:21 256 1.7
2020-Jan-27 03:16 256 1.7
2020-Jan-27 03:11 181 0 gusting 4 1.7
2020-Jan-27 03:06 212 4 gusting 6 1.7
2020-Jan-27 03:01 223 1.7
2020-Jan-27 02:56 237 2 gusting 11 1.7
2020-Jan-27 02:51 212 2 gusting 8 1.1
2020-Jan-27 02:46 213 0 gusting 8 1.1
2020-Jan-27 02:41 224 6 gusting 10 1.1
2020-Jan-27 02:36 246 1.1
2020-Jan-27 02:31 222 4 gusting 6 1.1
2020-Jan-27 02:26 247 6 gusting 6 1.1
2020-Jan-27 02:21 160 1.1
2020-Jan-27 02:16 184 1.1
2020-Jan-27 02:11 191 1.1
2020-Jan-27 02:06 158 1.1
2020-Jan-27 02:01 210 4 gusting 4 1.1
2020-Jan-27 01:56 175 1.1
2020-Jan-27 01:51 195 4 gusting 6 1.1
2020-Jan-27 01:46 215 1.1
2020-Jan-27 01:41 251 5 gusting 5 1.1
2020-Jan-27 01:36 188 2 gusting 6 1.7
2020-Jan-27 01:31 248 6 gusting 6 1.7
2020-Jan-27 01:26 258 6 gusting 6 1.7
2020-Jan-27 01:21 203 4 gusting 5 1.7
2020-Jan-27 01:15 203 1 gusting 5 1.7
2020-Jan-27 01:11 232 1.7
2020-Jan-27 01:06 202 2 gusting 5 1.7
2020-Jan-27 01:01 202 1.7
2020-Jan-27 00:56 220 1 gusting 6 1.7
2020-Jan-27 00:51 261 1 gusting 6 1.7
2020-Jan-27 00:46 254 1.7
2020-Jan-27 00:41 198 4 gusting 4 1.7
2020-Jan-27 00:36 219 0 gusting 2 1.7
2020-Jan-27 00:31 240 2 gusting 5 2.2
2020-Jan-27 00:26 220 5 gusting 8 2.2
2020-Jan-27 00:21 213 0 gusting 8 1.7
2020-Jan-27 00:16 229 2 gusting 6 2.2
2020-Jan-27 00:11 206 1 gusting 6 2.2
2020-Jan-27 00:06 213 0 gusting 6 2.2
2020-Jan-27 00:01 240 5 gusting 5 2.2
2020-Jan-26 23:56 216 2 gusting 6 2.2
2020-Jan-26 23:51 233 6 gusting 6 2.2
2020-Jan-26 23:46 232 3 gusting 4 2.2
2020-Jan-26 23:41 243 2.2
2020-Jan-26 23:36 241 1 gusting 6 2.2
2020-Jan-26 23:31 226 2.2
2020-Jan-26 23:25 254 2 gusting 6 2.8
2020-Jan-26 23:21 227 2.8
2020-Jan-26 23:16 265 0 gusting 6 2.8
2020-Jan-26 23:10 270 4 gusting 6 2.8
2020-Jan-26 23:05 257 3 gusting 6 2.8
2020-Jan-26 23:01 264 4 gusting 6 2.8
2020-Jan-26 22:56 261 5 gusting 6 2.8
2020-Jan-26 22:50 233 0 gusting 4 2.8
2020-Jan-26 22:46 267 3.3
2020-Jan-26 22:40 234 2 gusting 6 3.3
2020-Jan-26 22:35 275 6 gusting 9 3.3
2020-Jan-26 22:31 264 6 gusting 9 3.3
2020-Jan-26 22:25 236 5 gusting 9 3.3
2020-Jan-26 22:20 246 3.3
2020-Jan-26 22:15 234 3.9
2020-Jan-26 22:10 254 2 gusting 6 3.9
2020-Jan-26 22:05 256 0 gusting 6 3.9
2020-Jan-26 22:01 247 3.9